ASTRA 4A (SIRIUS 4)

Last updated on Sun May 19 2024 00:02:37 GMT+0000 (Coordinated Universal Time)

1 32299U 07057A 24139.52683948 .00000044 00000+0 00000+0 0 9994 2 32299 0.0171 314.2838 0002909 97.2665 19.6219 1.00275134 44032
UTC large
Height (km)
Speed (km/s)
/
Latitude / Longitude
Inclination (degrees)
Orbital Period (minutes)
Azimuth
Elevation
Range (km)
Doppler Factor

Next 0 passes for location: London (51.5072 / 0.1276)

Sorry there are no passes over London.
ASTRA 4A (SIRIUS 4)